Location: ????????
(60.5616°N, 46.8254°E)
Time: 09:51:39
(UTC+00:00)

Cosmos 2278 Rocket - Pass Details

Date: 18 February 2020
Orbit: 840 x 846 km, 71.0° (Epoch: 04 April)

Event Time Altitude Azimuth Distance (km) Brightness Sun altitude
Rises 16:50:01 0° 248° (WSW) 3,395 6.1 -22.7°
Reaches altitude 10° 16:52:34 10° 254° (WSW) 2,463 5.4 -23.0°
Maximum altitude 16:58:00 46° 328° (NNW) 1,125 3.1 -23.6°
Enters shadow 17:02:23 16° 37° (NE) 2,096 4.1 -24.1°
